Location: Unspecified
(39.0670°S, 0.0000°E)
Time: 10:56:50
(UTC+00:00)

Envisat - Pass Details

Date: 01 July 2019
Orbit: 764 x 766 km, 98.1° (Epoch: 17 August)

Event Time Altitude Azimuth Distance (km) Brightness Sun altitude
Rises 05:17:36 0° 50° (NE) 3,229 7.2 -23.0°
Reaches altitude 10° 05:20:19 10° 64° (ENE) 2,312 6.5 -22.5°
Maximum altitude 05:24:14 23° 114° (ESE) 1,608 5.2 -21.7°
Drops below altitude 10° 05:28:11 10° 164° (SSE) 2,334 5.5 -21.0°
Sets 05:30:56 0° 178° (S) 3,268 6.1 -20.5°
